Location: Lafig�re
(44.4503°N, 4.0357°E)
Time: 14:46:12
(UTC+00:00)

deb Explorer IX - Pass Details

Date: 25 January 2021
Orbit: 537 x 1102 km, 38.8° (Epoch: 01 March)

Event Time Altitude Azimuth Distance (km) Brightness Sun altitude
Rises 21:16:06 0° 271° (W) 3,375 ? -47.9°
Enters shadow 21:17:43 - 266° (W) 2,809 ? -48.2°
Reaches altitude 10° 21:19:09 10° 260° (W) 2,329 - -48.4°
Maximum altitude 21:23:32 25° 205° (SSW) 1,386 - -49.1°
Drops below altitude 10° 21:27:25 10° 150° (SSE) 2,034 - -49.7°
Sets 21:29:54 0° 137° (SE) 2,862 - -50.1°
